User: anonymous   Login
Location: Oshawa
(43.9000°N, 78.8670°W)
Time: 17:49:58
(UTC-04:00)
Language:

Cosmos 1821 Rocket - Orbit

View from above orbital plane
View from above orbital plane
View from above satellite
View from above satellite

Ground track
Ground track

The orbit data is extracted from the following two-line orbital elements,

1 17526U 87017B   17290.42179291  .00000171  00000-0  15746-3 0  9993
2 17526  82.8998 308.8890 0039682 337.3451  22.5953 13.76816736523168
Epoch (UTC): 17 October 2017 10:07:22
Eccentricity: 0.0039682
inclination: 82.8998°
perigee height: 946 km
apogee height: 1004 km
right ascension of ascending node: 308.8890°
argument of perigee: 337.3451°
revolutions per day: 13.76816736
mean anomaly at epoch: 22.5953°
orbit number at epoch: 52316

The dashed part of the orbit path shows where the satellite is in the earth's shadow,  

DLR